[[{"header":{"parameterUnit":"m.s-1","parameterCategory":1,"la1":30.2992,"la2":30.254,"lo1":-89.0895,"lo2":-89.0443,"dy":0.0025,"dx":0.0025,"nx":19,"ny":19,"refTime":"2026-03-23T21:00:00:Z","depth":0,"parameterNumber":2,"parameterNumberName":"U-component_of_WINDS"},"data":[0,0,0,2.4467,2.4468,2.4507,2.4507,2.4583,2.4584,0,0,0,0,0,0,0,0,0,0,0,2.447,2.4471,2.4467,2.4468,2.4507,2.4507,2.4583,2.4584,0,0,0,0,0,0,0,0,0,0,0,2.447,2.4471,2.4472,2.4468,2.4507,2.4507,2.4583,2.4544,0,0,0,0,0,0,0,0,0,0,2.4502,2.4519,2.447,2.4472,2.4469,2.4507,2.4507,2.4542,2.4547,2.4577,0,2.4606,0,2.4596,2.4591,2.4591,0,0,0,2.4458,2.4515,2.4512,2.4472,2.4469,2.4507,2.4486,2.4544,2.455,2.4583,2.4606,2.4609,2.4597,2.4591,2.4592,2.4796,2.4798,0,0,2.4455,2.4485,2.4509,2.4517,2.4511,2.4485,2.4488,2.4547,2.4575,2.4607,2.461,2.4599,2.4592,2.4593,2.4795,2.4797,0,0,0,2.4456,2.4484,2.4479,2.4514,2.4519,2.4487,2.4489,2.4572,2.4568,2.461,2.46,2.4593,2.4594,2.4793,2.4796,2.4896,0,0,0,2.4455,2.4484,2.4479,2.4497,2.4518,2.4546,2.4514,2.4564,2.457,2.4599,2.4593,2.4595,2.4792,2.4795,2.489,2.4938,0,0,0,2.4463,2.4485,2.4496,2.4499,2.4516,2.4544,2.4543,2.4565,2.4564,2.4591,2.4595,2.4791,2.4794,2.4884,2.4929,2.5001,0,0,0,2.448,2.4584,2.4498,2.4611,2.4516,2.4606,2.4542,2.4608,2.4643,2.4593,2.4792,2.4795,2.4882,2.4923,2.4995,2.5067,2.5099,0,0,2.4628,2.4603,2.4667,2.4591,2.4703,2.4597,2.4725,2.4729,2.4706,2.4768,2.4773,2.4892,2.4928,2.5,2.5272,2.5298,0,0,0,2.4724,2.4771,2.4794,2.4829,2.4835,2.4844,2.4826,2.4828,2.4879,2.4743,2.4936,2.4957,2.4998,2.5031,2.5053,2.5086,2.4812,2.4812,2.4811,2.4976,2.494,2.5044,2.5013,2.5048,2.5029,2.5054,2.5054,2.5007,2.5054,2.5071,2.5241,2.528,2.5297,2.5332,2.5106,2.5107,2.5107,2.5108,2.519,2.525,2.5187,2.5265,2.5227,2.5292,2.5279,2.5244,2.5301,2.5224,2.5258,2.5176,2.5326,2.5355,2.5115,2.5113,2.5113,2.5112,2.5111,2.5351,2.5373,2.5374,2.5421,2.5463,2.5428,2.5486,2.5449,2.5415,2.5449,2.5464,2.5463,2.5456,2.5459,2.546,2.546,2.5461,2.5461,2.5462,2.5517,2.5514,2.5567,2.5583,2.5601,2.5621,2.5605,2.5622,2.5632,2.5601,2.5601,2.5551,2.5348,2.5297,2.5471,2.5469,2.5468,2.5467,2.5466,2.5746,2.5689,2.577,2.5788,2.5806,2.585,2.5803,2.5842,2.5851,2.5881,2.5824,2.568,2.5652,2.5634,2.5592,2.5831,2.5831,2.5831,2.5831,2.5882,2.5864,2.5939,2.5971,2.5999,2.5965,2.606,2.6049,2.603,2.6034,2.5994,2.5936,2.5919,2.5901,2.5877,2.5837,2.6133,2.6134,2.6134,2.6021,2.6005,2.6091,2.607,2.6082,2.6093,2.6181,2.6222,2.6188,2.6145,2.6036,2.6023,2.5928,2.5899,2.5853,2.5817,2.5744,0,0]},{"header":{"parameterUnit":"m.s-1","parameterCategory":1,"la1":30.2992,"la2":30.254,"lo1":-89.0895,"lo2":-89.0443,"dy":0.0025,"dx":0.0025,"nx":19,"ny":19,"refTime":"2026-03-23T21:00:00:Z","depth":0,"parameterNumber":3,"parameterNumberName":"V-component_of_WINDS"},"data":[0,0,0,2.1154,2.1162,2.1528,2.1529,2.1984,2.1988,0,0,0,0,0,0,0,0,0,0,0,2.1039,2.1042,2.1154,2.1163,2.1528,2.153,2.1983,2.1988,0,0,0,0,0,0,0,0,0,0,0,2.1038,2.1041,2.1045,2.1164,2.1528,2.153,2.1982,2.1711,0,0,0,0,0,0,0,0,0,0,2.1358,2.1245,2.104,2.1045,2.1166,2.1527,2.153,2.1698,2.1728,2.1812,0,2.1887,0,2.1944,2.2017,2.2019,0,0,0,2.1168,2.122,2.1325,2.1045,2.1169,2.1527,2.1365,2.1715,2.1748,2.1852,2.1894,2.1911,2.1952,2.202,2.2022,2.2493,2.2495,0,0,2.1148,2.1102,2.1302,2.1346,2.129,2.1353,2.1376,2.1735,2.1778,2.1895,2.1922,2.1959,2.2023,2.2026,2.2491,2.2494,0,0,0,2.1086,2.1087,2.1183,2.1327,2.1394,2.1363,2.139,2.1762,2.1797,2.1927,2.1965,2.2026,2.2031,2.2489,2.2492,2.2543,0,0,0,2.1074,2.1051,2.1174,2.1149,2.1387,2.1583,2.1408,2.1772,2.1814,2.1962,2.2026,2.2035,2.2487,2.2491,2.2537,2.2576,0,0,0,2.1018,2.1045,2.1095,2.1146,2.1302,2.1578,2.1634,2.1782,2.1837,2.2019,2.2037,2.2486,2.249,2.2532,2.2568,2.2686,0,0,0,2.0944,2.1137,2.1095,2.1325,2.1298,2.1606,2.1632,2.1865,2.2027,2.2028,2.2488,2.2492,2.2531,2.2562,2.2679,2.2777,2.2813,0,0,2.1162,2.1162,2.1301,2.1274,2.1577,2.1554,2.1866,2.2059,2.2119,2.2364,2.2377,2.2539,2.2567,2.2684,2.303,2.3058,0,0,0,2.1354,2.1453,2.1544,2.1695,2.1846,2.1978,2.2127,2.2198,2.2408,2.2236,2.2615,2.2633,2.2703,2.2752,2.2777,2.284,2.2512,2.2512,2.2511,2.1599,2.1662,2.1896,2.2002,2.2148,2.2298,2.2422,2.2543,2.2567,2.2654,2.2729,2.2931,2.2986,2.3004,2.3069,2.2784,2.2785,2.2785,2.2785,2.1924,2.2074,2.2097,2.2331,2.2396,2.2594,2.2743,2.2752,2.2945,2.2881,2.2947,2.2872,2.3033,2.3093,2.279,2.2789,2.2788,2.2788,2.2788,2.2092,2.2175,2.2256,2.2479,2.2642,2.2743,2.2925,2.2978,2.303,2.3094,2.3177,2.3176,2.3182,2.3129,2.313,2.3131,2.3131,2.3132,2.3132,2.2235,2.2325,2.2472,2.2644,2.2746,2.2887,2.3035,2.3137,2.3263,2.3287,2.3288,2.3301,2.3037,2.2969,2.3144,2.3142,2.314,2.3139,2.3138,2.2544,2.2481,2.2709,2.2811,2.3015,2.3172,2.3236,2.3437,2.3528,2.3616,2.3614,2.3409,2.3414,2.3395,2.334,2.36,2.36,2.36,2.36,2.2686,2.2692,2.2935,2.3093,2.3255,2.3334,2.3586,2.3701,2.381,2.387,2.3839,2.377,2.3748,2.3765,2.3739,2.3688,2.4031,2.4031,2.4032,2.2879,2.2902,2.3108,2.3214,2.3376,2.3513,2.3751,2.3931,2.4042,2.405,2.3918,2.3899,2.3788,2.3748,2.3757,2.3714,2.3622,0,0]}]]